STARLINK-5706, 55488

Orbit data source: Space-Track

STARLINK-5706, 55488 is a payload satellite owned by SpaceX/Seattle (US) in LEO that was launched on Thu, 02 Feb 2023 UTC via an FALCON 9 launch vehicle from the Air Force Eastern Test Range (AFETR). Payload-class satellites include a variety of spacecraft equipped with specific instruments for various scientific and technological missions. These include communications satellites like Starlink; space stations such as the ISS; scientific satellites like the Hubble; Earth observation satellites from companies like Planet Labs, Umbra, and HawkEye 360; GPS; miniature CubeSats for education and research; and military/defense satellites.

Loading next visibility...
Identifier
55488, 2023-015AR
Orbit
LEO
Country
Flag of USUS
Related business
Manufacturer
SpaceX/Seattle
Mission
Operational Commercial Communications
Bus & Motor
STARLINK, Unknown motor
Mass
305 kg wet, ~290 kg dry
Launch date (UTC)
2023-02-02 (3 years ago)
Launch vehicle
FALCON 9
Launch site
Air Force Eastern Test Range (AFETR)
Object type
Payload
Rocket body
Debris
Shape & HBR
Box + 1 Pan, 10.1 m
Radar Cross Section
13.562 m², Large (>1 m²)

Expand to show TLE details & history
Last TLE update: 19 hours ago

TLE from 19 hours ago
0 STARLINK-5706
1 55488U 23015AR  25288.35237310  .00000666  00000-0  64376-4 0  9998
2 55488  43.0050  48.5105 0001276 265.2267  94.8430 15.02535051148742
Epoch: 2025-10-15T08:27Z
TLE epoch observation values (Epoch: 2025-10-15T08:27:25.035Z)
Latitude
-0.00001°
Longitude
-102.4715°
Altitude
558.936 km
Speed
7.584 km/s
True Right ascension
03h 14m 02s
True Declination
0° 00' 00"
Sunlit
Object was in full shadow at epoch
Visualization orbit readout
Latitude
Unknown
Longitude
Unknown
Altitude
Unknown
Speed
Unknown
Apparent Right ascension
Unknown
Apparent Declination
Unknown
Sunlit
N/A
Visualization observer readout
Local Sidereal Time
21:58:28
Azimuth
Unknown
Elevation
Unknown
Doppler factor
Unknown
Orbital elements
Apogee altitude
561.891 km
Perigee altitude
560.12 km
Semi-major axis
6,939.143 km
Eccentricity
0.00013
Inclination
43.005°
RAAN
48.5105°
Arg. of periapsis
265.2267°
True anomaly
94.85757°
Mean anomaly
94.843°
Eccentric anomaly
94.85028°
Mean motion
3.75478 °/min
Orbital period
95.88 mins
BSTAR
0.000064376
Loading maneuver chart data...
Computing Atmospheric mass density...
Loading historical data...
Loading historical data...
Loading historical data...
Loading historical data...
Loading historical data...
Loading historical data...
Loading historical data...

Documentation

Showing up to 5 results
|